Date_Time,Julian_Date,Latitude,Longitude,Instrument_Depth,U,V,Speed,Direction
(yyyy-mm-dd hh:mn:ss UTC),(JD),(+ deg. North),(+ deg. East),(m),(cm/s),(cm/s),(cm/s),(deg True)
1982-03-14 17:30:00 UTC,2445043.229167,29.6417,-93.6667,0076,-18.61,-13.52,23.0000,234.0000
1982-03-14 18:00:00 UTC,2445043.250000,29.6417,-93.6667,0076,-16.29,-9.79,19.0000,239.0000
1982-03-14 18:30:00 UTC,2445043.270833,29.6417,-93.6667,0076,-14.87,-8.24,17.0000,241.0000
1982-03-14 19:00:00 UTC,2445043.291667,29.6417,-93.6667,0076,-13.12,-7.27,15.0000,241.0000
1982-03-14 19:30:00 UTC,2445043.312500,29.6417,-93.6667,0076,-9.33,-5.83,11.0000,238.0000
1982-03-14 20:00:00 UTC,2445043.333333,29.6417,-93.6667,0076,-7.19,-6.95,10.0000,226.0000
1982-03-14 20:30:00 UTC,2445043.354167,29.6417,-93.6667,0076,-7.08,-10.90,13.0000,213.0000
1982-03-14 21:00:00 UTC,2445043.375000,29.6417,-93.6667,0076,-10.00,-17.32,20.0000,210.0000
1982-03-14 21:30:00 UTC,2445043.395833,29.6417,-93.6667,0076,-12.00,-20.78,24.0000,210.0000
1982-03-14 22:00:00 UTC,2445043.416667,29.6417,-93.6667,0076,-13.62,-20.97,25.0000,213.0000
1982-03-14 22:30:00 UTC,2445043.437500,29.6417,-93.6667,0076,-14.16,-21.81,26.0000,213.0000
1982-03-14 23:00:00 UTC,2445043.458333,29.6417,-93.6667,0076,-13.57,-24.49,28.0000,209.0000
1982-03-14 23:30:00 UTC,2445043.479167,29.6417,-93.6667,0076,-11.80,-26.49,29.0000,204.0000
1982-03-15 00:00:00 UTC,2445043.500000,29.6417,-93.6667,0076,-10.86,-26.89,29.0000,202.0000
1982-03-15 00:30:00 UTC,2445043.520833,29.6417,-93.6667,0076,-10.49,-25.96,28.0000,202.0000
1982-03-15 01:00:00 UTC,2445043.541667,29.6417,-93.6667,0076,-11.33,-26.69,29.0000,203.0000
1982-03-15 01:30:00 UTC,2445043.562500,29.6417,-93.6667,0076,-11.33,-26.69,29.0000,203.0000
1982-03-15 02:00:00 UTC,2445043.583333,29.6417,-93.6667,0076,-10.03,-26.14,28.0000,201.0000
1982-03-15 02:30:00 UTC,2445043.604167,29.6417,-93.6667,0076,-7.73,-23.78,25.0000,198.0000
1982-03-15 03:00:00 UTC,2445043.625000,29.6417,-93.6667,0076,-7.81,-22.69,24.0000,199.0000
1982-03-15 03:30:00 UTC,2445043.645833,29.6417,-93.6667,0076,-8.55,-23.49,25.0000,200.0000
1982-03-15 04:00:00 UTC,2445043.666667,29.6417,-93.6667,0076,-8.55,-23.49,25.0000,200.0000
1982-03-15 04:30:00 UTC,2445043.687500,29.6417,-93.6667,0076,-8.99,-22.25,24.0000,202.0000
1982-03-15 05:00:00 UTC,2445043.708333,29.6417,-93.6667,0076,-10.52,-21.57,24.0000,206.0000
1982-03-15 05:30:00 UTC,2445043.729167,29.6417,-93.6667,0076,-11.44,-17.61,21.0000,213.0000
1982-03-15 06:00:00 UTC,2445043.750000,29.6417,-93.6667,0076,-10.24,-8.00,13.0000,232.0000
1982-03-15 06:30:00 UTC,2445043.770833,29.6417,-93.6667,0076,-8.77,2.02,9.0000,283.0000
1982-03-15 07:00:00 UTC,2445043.791667,29.6417,-93.6667,0076,-9.19,9.19,13.0000,315.0000
1982-03-15 07:30:00 UTC,2445043.812500,29.6417,-93.6667,0076,-10.50,12.08,16.0000,319.0000
1982-03-15 08:00:00 UTC,2445043.833333,29.6417,-93.6667,0076,-10.91,11.70,16.0000,317.0000
1982-03-15 08:30:00 UTC,2445043.854167,29.6417,-93.6667,0076,-10.23,10.97,15.0000,317.0000
1982-03-15 09:00:00 UTC,2445043.875000,29.6417,-93.6667,0076,-9.03,9.35,13.0000,316.0000
1982-03-15 09:30:00 UTC,2445043.895833,29.6417,-93.6667,0076,-8.63,8.34,12.0000,314.0000
1982-03-15 10:00:00 UTC,2445043.916667,29.6417,-93.6667,0076,-6.69,7.43,10.0000,318.0000
1982-03-15 10:30:00 UTC,2445043.937500,29.6417,-93.6667,0076,-4.81,6.39,8.0000,323.0000
1982-03-15 11:00:00 UTC,2445043.958333,29.6417,-93.6667,0076,-5.66,5.66,8.0000,315.0000
1982-03-15 11:30:00 UTC,2445043.979167,29.6417,-93.6667,0076,-9.01,6.31,11.0000,305.0000
1982-03-15 12:00:00 UTC,2445044.000000,29.6417,-93.6667,0076,-12.99,7.50,15.0000,300.0000
1982-03-15 12:30:00 UTC,2445044.020833,29.6417,-93.6667,0076,-9.80,4.99,11.0000,297.0000
1982-03-15 13:00:00 UTC,2445044.041667,29.6417,-93.6667,0076,-2.49,1.68,3.0000,304.0000
1982-03-15 13:30:00 UTC,2445044.062500,29.6417,-93.6667,0076,0.92,0.39,1.0000,67.0000
1982-03-15 14:00:00 UTC,2445044.083333,29.6417,-93.6667,0076,1.92,-0.55,2.0000,106.0000
1982-03-15 14:30:00 UTC,2445044.104167,29.6417,-93.6667,0076,1.89,-0.65,2.0000,109.0000
1982-03-15 15:00:00 UTC,2445044.125000,29.6417,-93.6667,0076,0.00,0.00,0.0000,56.0000
1982-03-15 15:30:00 UTC,2445044.145833,29.6417,-93.6667,0076,-1.85,0.75,2.0000,292.0000
1982-03-15 16:00:00 UTC,2445044.166667,29.6417,-93.6667,0076,-3.76,1.37,4.0000,290.0000
1982-03-15 16:30:00 UTC,2445044.187500,29.6417,-93.6667,0076,-4.33,2.50,5.0000,300.0000
1982-03-15 17:00:00 UTC,2445044.208333,29.6417,-93.6667,0076,-7.19,5.42,9.0000,307.0000
1982-03-15 17:30:00 UTC,2445044.229167,29.6417,-93.6667,0076,-9.83,6.88,12.0000,305.0000
1982-03-15 18:00:00 UTC,2445044.250000,29.6417,-93.6667,0076,-9.62,5.33,11.0000,299.0000
1982-03-15 18:30:00 UTC,2445044.270833,29.6417,-93.6667,0076,-8.22,3.66,9.0000,294.0000
1982-03-15 19:00:00 UTC,2445044.291667,29.6417,-93.6667,0076,-8.09,3.95,9.0000,296.0000
1982-03-15 19:30:00 UTC,2445044.312500,29.6417,-93.6667,0076,-7.06,3.76,8.0000,298.0000
1982-03-15 20:00:00 UTC,2445044.333333,29.6417,-93.6667,0076,-5.56,2.25,6.0000,292.0000
1982-03-15 20:30:00 UTC,2445044.354167,29.6417,-93.6667,0076,-4.89,1.04,5.0000,282.0000
1982-03-15 21:00:00 UTC,2445044.375000,29.6417,-93.6667,0076,-6.76,1.81,7.0000,285.0000
1982-03-15 21:30:00 UTC,2445044.395833,29.6417,-93.6667,0076,-10.40,3.58,11.0000,289.0000
1982-03-15 22:00:00 UTC,2445044.416667,29.6417,-93.6667,0076,-13.74,2.67,14.0000,281.0000
1982-03-15 22:30:00 UTC,2445044.437500,29.6417,-93.6667,0076,-14.98,-0.79,15.0000,267.0000
1982-03-15 23:00:00 UTC,2445044.458333,29.6417,-93.6667,0076,-14.49,-3.88,15.0000,255.0000
1982-03-15 23:30:00 UTC,2445044.479167,29.6417,-93.6667,0076,-15.53,-6.91,17.0000,246.0000
1982-03-16 00:00:00 UTC,2445044.500000,29.6417,-93.6667,0076,-17.22,-8.03,19.0000,245.0000
1982-03-16 00:30:00 UTC,2445044.520833,29.6417,-93.6667,0076,-17.30,-4.96,18.0000,254.0000
1982-03-16 01:00:00 UTC,2445044.541667,29.6417,-93.6667,0076,-17.78,-2.82,18.0000,261.0000
1982-03-16 01:30:00 UTC,2445044.562500,29.6417,-93.6667,0076,-16.50,-4.11,17.0000,256.0000
1982-03-16 02:00:00 UTC,2445044.583333,29.6417,-93.6667,0076,-15.53,-6.91,17.0000,246.0000
1982-03-16 02:30:00 UTC,2445044.604167,29.6417,-93.6667,0076,-15.59,-9.00,18.0000,240.0000
1982-03-16 03:00:00 UTC,2445044.625000,29.6417,-93.6667,0076,-15.10,-9.80,18.0000,237.0000
1982-03-16 03:30:00 UTC,2445044.645833,29.6417,-93.6667,0076,-14.09,-9.51,17.0000,236.0000
1982-03-16 04:00:00 UTC,2445044.666667,29.6417,-93.6667,0076,-14.56,-10.58,18.0000,234.0000
1982-03-16 04:30:00 UTC,2445044.687500,29.6417,-93.6667,0076,-13.99,-11.33,18.0000,231.0000
1982-03-16 05:00:00 UTC,2445044.708333,29.6417,-93.6667,0076,-12.83,-11.15,17.0000,229.0000
1982-03-16 05:30:00 UTC,2445044.729167,29.6417,-93.6667,0076,-13.40,-10.47,17.0000,232.0000
1982-03-16 06:00:00 UTC,2445044.750000,29.6417,-93.6667,0076,-13.71,-8.24,16.0000,239.0000
1982-03-16 06:30:00 UTC,2445044.770833,29.6417,-93.6667,0076,-12.89,-5.47,14.0000,247.0000
1982-03-16 07:00:00 UTC,2445044.791667,29.6417,-93.6667,0076,-12.87,-1.81,13.0000,262.0000
1982-03-16 07:30:00 UTC,2445044.812500,29.6417,-93.6667,0076,-11.95,1.05,12.0000,275.0000
1982-03-16 08:00:00 UTC,2445044.833333,29.6417,-93.6667,0076,-10.86,1.72,11.0000,279.0000
1982-03-16 08:30:00 UTC,2445044.854167,29.6417,-93.6667,0076,-9.88,1.56,10.0000,279.0000
1982-03-16 09:00:00 UTC,2445044.875000,29.6417,-93.6667,0076,-9.56,2.92,10.0000,287.0000
1982-03-16 09:30:00 UTC,2445044.895833,29.6417,-93.6667,0076,-9.23,5.99,11.0000,303.0000
1982-03-16 10:00:00 UTC,2445044.916667,29.6417,-93.6667,0076,-8.53,9.81,13.0000,319.0000
1982-03-16 10:30:00 UTC,2445044.937500,29.6417,-93.6667,0076,-5.70,11.68,13.0000,334.0000
1982-03-16 11:00:00 UTC,2445044.958333,29.6417,-93.6667,0076,-4.39,14.34,15.0000,343.0000
1982-03-16 11:30:00 UTC,2445044.979167,29.6417,-93.6667,0076,-4.14,15.45,16.0000,345.0000
1982-03-16 12:00:00 UTC,2445045.000000,29.6417,-93.6667,0076,-3.87,15.52,16.0000,346.0000
1982-03-16 12:30:00 UTC,2445045.020833,29.6417,-93.6667,0076,-3.63,14.55,15.0000,346.0000
1982-03-16 13:00:00 UTC,2445045.041667,29.6417,-93.6667,0076,-3.31,11.54,12.0000,344.0000
1982-03-16 13:30:00 UTC,2445045.062500,29.6417,-93.6667,0076,-3.76,10.34,11.0000,340.0000
1982-03-16 14:00:00 UTC,2445045.083333,29.6417,-93.6667,0076,-5.26,10.79,12.0000,334.0000
1982-03-16 14:30:00 UTC,2445045.104167,29.6417,-93.6667,0076,-4.82,9.89,11.0000,334.0000
1982-03-16 15:00:00 UTC,2445045.125000,29.6417,-93.6667,0076,-2.42,9.70,10.0000,346.0000
1982-03-16 15:30:00 UTC,2445045.145833,29.6417,-93.6667,0076,0.47,8.99,9.0000,3.0000
1982-03-16 16:00:00 UTC,2445045.166667,29.6417,-93.6667,0076,1.25,7.90,8.0000,9.0000
1982-03-16 16:30:00 UTC,2445045.187500,29.6417,-93.6667,0076,0.49,6.98,7.0000,4.0000
1982-03-16 17:00:00 UTC,2445045.208333,29.6417,-93.6667,0076,0.35,4.99,5.0000,4.0000
1982-03-16 17:30:00 UTC,2445045.229167,29.6417,-93.6667,0076,-0.16,3.00,3.0000,357.0000
1982-03-16 18:00:00 UTC,2445045.250000,29.6417,-93.6667,0076,-0.31,0.95,1.0000,342.0000
1982-03-16 18:30:00 UTC,2445045.270833,29.6417,-93.6667,0076,-0.00,0.00,0.0000,328.0000
1982-03-16 19:00:00 UTC,2445045.291667,29.6417,-93.6667,0076,-0.00,-0.00,0.0000,223.0000
1982-03-16 19:30:00 UTC,2445045.312500,29.6417,-93.6667,0076,0.00,-0.00,0.0000,178.0000
1982-03-16 20:00:00 UTC,2445045.333333,29.6417,-93.6667,0076,-0.96,-0.28,1.0000,254.0000
1982-03-16 20:30:00 UTC,2445045.354167,29.6417,-93.6667,0076,-3.00,0.10,3.0000,272.0000
1982-03-16 21:00:00 UTC,2445045.375000,29.6417,-93.6667,0076,-7.00,-0.12,7.0000,269.0000
1982-03-16 21:30:00 UTC,2445045.395833,29.6417,-93.6667,0076,-7.88,-1.39,8.0000,260.0000
1982-03-16 22:00:00 UTC,2445045.416667,29.6417,-93.6667,0076,-7.31,-3.25,8.0000,246.0000
1982-03-16 22:30:00 UTC,2445045.437500,29.6417,-93.6667,0076,-7.46,-5.03,9.0000,236.0000
1982-03-16 23:00:00 UTC,2445045.458333,29.6417,-93.6667,0076,-8.19,-5.74,10.0000,235.0000
1982-03-16 23:30:00 UTC,2445045.479167,29.6417,-93.6667,0076,-10.79,-5.26,12.0000,244.0000
1982-03-17 00:00:00 UTC,2445045.500000,29.6417,-93.6667,0076,-13.52,-3.62,14.0000,255.0000
1982-03-17 00:30:00 UTC,2445045.520833,29.6417,-93.6667,0076,-15.84,-2.23,16.0000,262.0000
1982-03-17 01:00:00 UTC,2445045.541667,29.6417,-93.6667,0076,-16.96,-1.19,17.0000,266.0000
1982-03-17 01:30:00 UTC,2445045.562500,29.6417,-93.6667,0076,-17.00,-0.30,17.0000,269.0000
1982-03-17 02:00:00 UTC,2445045.583333,29.6417,-93.6667,0076,-16.00,0.28,16.0000,271.0000
1982-03-17 02:30:00 UTC,2445045.604167,29.6417,-93.6667,0076,-15.94,-1.39,16.0000,265.0000
1982-03-17 03:00:00 UTC,2445045.625000,29.6417,-93.6667,0076,-16.34,-4.69,17.0000,254.0000
1982-03-17 03:30:00 UTC,2445045.645833,29.6417,-93.6667,0076,-17.02,-5.86,18.0000,251.0000
1982-03-17 04:00:00 UTC,2445045.666667,29.6417,-93.6667,0076,-16.34,-4.69,17.0000,254.0000
1982-03-17 04:30:00 UTC,2445045.687500,29.6417,-93.6667,0076,-15.80,-2.50,16.0000,261.0000
1982-03-17 05:00:00 UTC,2445045.708333,29.6417,-93.6667,0076,-14.99,0.52,15.0000,272.0000
1982-03-17 05:30:00 UTC,2445045.729167,29.6417,-93.6667,0076,-13.64,3.15,14.0000,283.0000
1982-03-17 06:00:00 UTC,2445045.750000,29.6417,-93.6667,0076,-11.97,5.08,13.0000,293.0000
1982-03-17 06:30:00 UTC,2445045.770833,29.6417,-93.6667,0076,-9.71,7.05,12.0000,306.0000
1982-03-17 07:00:00 UTC,2445045.791667,29.6417,-93.6667,0076,-6.31,9.01,11.0000,325.0000
1982-03-17 07:30:00 UTC,2445045.812500,29.6417,-93.6667,0076,-3.03,10.57,11.0000,344.0000
1982-03-17 08:00:00 UTC,2445045.833333,29.6417,-93.6667,0076,-0.42,11.99,12.0000,358.0000
1982-03-17 08:30:00 UTC,2445045.854167,29.6417,-93.6667,0076,-0.23,13.00,13.0000,359.0000
1982-03-17 09:00:00 UTC,2445045.875000,29.6417,-93.6667,0076,-2.43,13.79,14.0000,350.0000
1982-03-17 09:30:00 UTC,2445045.895833,29.6417,-93.6667,0076,-2.91,13.69,14.0000,348.0000
1982-03-17 10:00:00 UTC,2445045.916667,29.6417,-93.6667,0076,-0.23,13.00,13.0000,359.0000
1982-03-17 10:30:00 UTC,2445045.937500,29.6417,-93.6667,0076,2.08,11.82,12.0000,10.0000
1982-03-17 11:00:00 UTC,2445045.958333,29.6417,-93.6667,0076,2.29,10.76,11.0000,12.0000
1982-03-17 11:30:00 UTC,2445045.979167,29.6417,-93.6667,0076,1.72,8.83,9.0000,11.0000
1982-03-17 12:00:00 UTC,2445046.000000,29.6417,-93.6667,0076,1.10,6.91,7.0000,9.0000
1982-03-17 12:30:00 UTC,2445046.020833,29.6417,-93.6667,0076,0.09,5.00,5.0000,1.0000
1982-03-17 13:00:00 UTC,2445046.041667,29.6417,-93.6667,0076,-1.43,3.73,4.0000,339.0000
1982-03-17 13:30:00 UTC,2445046.062500,29.6417,-93.6667,0076,-3.11,2.52,4.0000,309.0000
1982-03-17 14:00:00 UTC,2445046.083333,29.6417,-93.6667,0076,-3.46,2.00,4.0000,300.0000
1982-03-17 14:30:00 UTC,2445046.104167,29.6417,-93.6667,0076,-2.12,2.12,3.0000,315.0000
1982-03-17 15:00:00 UTC,2445046.125000,29.6417,-93.6667,0076,-1.23,1.58,2.0000,322.0000
1982-03-17 15:30:00 UTC,2445046.145833,29.6417,-93.6667,0076,-1.98,0.28,2.0000,278.0000
1982-03-17 16:00:00 UTC,2445046.166667,29.6417,-93.6667,0076,-2.97,-0.42,3.0000,262.0000
1982-03-17 16:30:00 UTC,2445046.187500,29.6417,-93.6667,0076,-2.72,-1.27,3.0000,245.0000
1982-03-17 17:00:00 UTC,2445046.208333,29.6417,-93.6667,0076,-2.76,-1.17,3.0000,247.0000
1982-03-17 17:30:00 UTC,2445046.229167,29.6417,-93.6667,0076,-3.91,-0.83,4.0000,258.0000
1982-03-17 18:00:00 UTC,2445046.250000,29.6417,-93.6667,0076,-2.91,-0.73,3.0000,256.0000
1982-03-17 18:30:00 UTC,2445046.270833,29.6417,-93.6667,0076,-2.76,-1.17,3.0000,247.0000
1982-03-17 19:00:00 UTC,2445046.291667,29.6417,-93.6667,0076,-2.65,-1.41,3.0000,242.0000
1982-03-17 19:30:00 UTC,2445046.312500,29.6417,-93.6667,0076,-1.51,-1.31,2.0000,229.0000
1982-03-17 20:00:00 UTC,2445046.333333,29.6417,-93.6667,0076,-0.42,-2.97,3.0000,188.0000
1982-03-17 20:30:00 UTC,2445046.354167,29.6417,-93.6667,0076,0.97,-3.88,4.0000,166.0000
1982-03-17 21:00:00 UTC,2445046.375000,29.6417,-93.6667,0076,1.55,-5.80,6.0000,165.0000
1982-03-17 21:30:00 UTC,2445046.395833,29.6417,-93.6667,0076,1.14,-5.89,6.0000,169.0000
1982-03-17 22:00:00 UTC,2445046.416667,29.6417,-93.6667,0076,1.35,-5.85,6.0000,167.0000
1982-03-17 22:30:00 UTC,2445046.437500,29.6417,-93.6667,0076,1.95,-5.67,6.0000,161.0000
1982-03-17 23:00:00 UTC,2445046.458333,29.6417,-93.6667,0076,2.47,-7.61,8.0000,162.0000
1982-03-17 23:30:00 UTC,2445046.479167,29.6417,-93.6667,0076,1.80,-7.79,8.0000,167.0000
1982-03-18 00:00:00 UTC,2445046.500000,29.6417,-93.6667,0076,1.39,-7.88,8.0000,170.0000
1982-03-18 00:30:00 UTC,2445046.520833,29.6417,-93.6667,0076,1.46,-6.85,7.0000,168.0000
1982-03-18 01:00:00 UTC,2445046.541667,29.6417,-93.6667,0076,1.63,-4.73,5.0000,161.0000
1982-03-18 01:30:00 UTC,2445046.562500,29.6417,-93.6667,0076,1.36,-1.46,2.0000,137.0000
1982-03-18 02:00:00 UTC,2445046.583333,29.6417,-93.6667,0076,1.96,-0.38,2.0000,101.0000
1982-03-18 02:30:00 UTC,2445046.604167,29.6417,-93.6667,0076,3.00,-0.10,3.0000,92.0000
1982-03-18 03:00:00 UTC,2445046.625000,29.6417,-93.6667,0076,3.97,-0.49,4.0000,97.0000
1982-03-18 03:30:00 UTC,2445046.645833,29.6417,-93.6667,0076,4.87,-1.12,5.0000,103.0000
1982-03-18 04:00:00 UTC,2445046.666667,29.6417,-93.6667,0076,5.77,-1.65,6.0000,106.0000
1982-03-18 04:30:00 UTC,2445046.687500,29.6417,-93.6667,0076,5.71,-1.85,6.0000,108.0000
1982-03-18 05:00:00 UTC,2445046.708333,29.6417,-93.6667,0076,5.67,-1.95,6.0000,109.0000
1982-03-18 05:30:00 UTC,2445046.729167,29.6417,-93.6667,0076,5.67,-1.95,6.0000,109.0000
1982-03-18 06:00:00 UTC,2445046.750000,29.6417,-93.6667,0076,6.73,-1.93,7.0000,106.0000
1982-03-18 06:30:00 UTC,2445046.770833,29.6417,-93.6667,0076,6.98,-0.49,7.0000,94.0000
1982-03-18 07:00:00 UTC,2445046.791667,29.6417,-93.6667,0076,7.79,1.80,8.0000,77.0000
1982-03-18 07:30:00 UTC,2445046.812500,29.6417,-93.6667,0076,9.27,3.75,10.0000,68.0000
1982-03-18 08:00:00 UTC,2445046.833333,29.6417,-93.6667,0076,9.97,4.65,11.0000,65.0000
1982-03-18 08:30:00 UTC,2445046.854167,29.6417,-93.6667,0076,9.21,3.91,10.0000,67.0000
1982-03-18 09:00:00 UTC,2445046.875000,29.6417,-93.6667,0076,9.46,3.26,10.0000,71.0000
1982-03-18 09:30:00 UTC,2445046.895833,29.6417,-93.6667,0076,9.66,2.59,10.0000,75.0000
1982-03-18 10:00:00 UTC,2445046.916667,29.6417,-93.6667,0076,9.66,2.59,10.0000,75.0000
1982-03-18 10:30:00 UTC,2445046.937500,29.6417,-93.6667,0076,8.77,2.02,9.0000,77.0000
1982-03-18 11:00:00 UTC,2445046.958333,29.6417,-93.6667,0076,8.86,1.56,9.0000,80.0000
1982-03-18 11:30:00 UTC,2445046.979167,29.6417,-93.6667,0076,8.91,1.25,9.0000,82.0000
1982-03-18 12:00:00 UTC,2445047.000000,29.6417,-93.6667,0076,9.93,1.22,10.0000,83.0000
1982-03-18 12:30:00 UTC,2445047.020833,29.6417,-93.6667,0076,10.80,2.10,11.0000,79.0000
1982-03-18 13:00:00 UTC,2445047.041667,29.6417,-93.6667,0076,11.69,2.70,12.0000,77.0000
1982-03-18 13:30:00 UTC,2445047.062500,29.6417,-93.6667,0076,11.88,1.67,12.0000,82.0000
1982-03-18 14:00:00 UTC,2445047.083333,29.6417,-93.6667,0076,12.00,0.21,12.0000,89.0000
1982-03-18 14:30:00 UTC,2445047.104167,29.6417,-93.6667,0076,11.91,-1.46,12.0000,97.0000
1982-03-18 15:00:00 UTC,2445047.125000,29.6417,-93.6667,0076,11.54,-3.31,12.0000,106.0000
1982-03-18 15:30:00 UTC,2445047.145833,29.6417,-93.6667,0076,10.79,-5.26,12.0000,116.0000
1982-03-18 16:00:00 UTC,2445047.166667,29.6417,-93.6667,0076,9.58,-7.22,12.0000,127.0000
1982-03-18 16:30:00 UTC,2445047.187500,29.6417,-93.6667,0076,10.57,-9.18,14.0000,131.0000
1982-03-18 17:00:00 UTC,2445047.208333,29.6417,-93.6667,0076,12.78,-9.63,16.0000,127.0000
1982-03-18 17:30:00 UTC,2445047.229167,29.6417,-93.6667,0076,14.38,-10.83,18.0000,127.0000
1982-03-18 18:00:00 UTC,2445047.250000,29.6417,-93.6667,0076,14.12,-12.71,19.0000,132.0000
1982-03-18 18:30:00 UTC,2445047.270833,29.6417,-93.6667,0076,14.14,-14.14,20.0000,135.0000
1982-03-18 19:00:00 UTC,2445047.291667,29.6417,-93.6667,0076,14.59,-15.11,21.0000,136.0000
1982-03-18 19:30:00 UTC,2445047.312500,29.6417,-93.6667,0076,15.39,-17.09,23.0000,138.0000
1982-03-18 20:00:00 UTC,2445047.333333,29.6417,-93.6667,0076,15.75,-18.11,24.0000,139.0000
1982-03-18 20:30:00 UTC,2445047.354167,29.6417,-93.6667,0076,15.75,-18.11,24.0000,139.0000
1982-03-18 21:00:00 UTC,2445047.375000,29.6417,-93.6667,0076,14.78,-17.62,23.0000,140.0000
1982-03-18 21:30:00 UTC,2445047.395833,29.6417,-93.6667,0076,12.34,-16.99,21.0000,144.0000
1982-03-18 22:00:00 UTC,2445047.416667,29.6417,-93.6667,0076,8.45,-15.89,18.0000,152.0000
1982-03-18 22:30:00 UTC,2445047.437500,29.6417,-93.6667,0076,5.02,-13.07,14.0000,159.0000
1982-03-18 23:00:00 UTC,2445047.458333,29.6417,-93.6667,0076,3.91,-11.35,12.0000,161.0000
1982-03-18 23:30:00 UTC,2445047.479167,29.6417,-93.6667,0076,2.66,-10.67,11.0000,166.0000
1982-03-19 00:00:00 UTC,2445047.500000,29.6417,-93.6667,0076,0.35,-9.99,10.0000,178.0000
1982-03-19 00:30:00 UTC,2445047.520833,29.6417,-93.6667,0076,-1.56,-9.88,10.0000,189.0000
1982-03-19 01:00:00 UTC,2445047.541667,29.6417,-93.6667,0076,-1.11,-7.92,8.0000,188.0000
1982-03-19 01:30:00 UTC,2445047.562500,29.6417,-93.6667,0076,-1.66,-7.83,8.0000,192.0000
1982-03-19 02:00:00 UTC,2445047.583333,29.6417,-93.6667,0076,-4.36,-6.71,8.0000,213.0000
1982-03-19 02:30:00 UTC,2445047.604167,29.6417,-93.6667,0076,-7.55,-6.56,10.0000,229.0000
1982-03-19 03:00:00 UTC,2445047.625000,29.6417,-93.6667,0076,-8.39,-5.45,10.0000,237.0000
1982-03-19 03:30:00 UTC,2445047.645833,29.6417,-93.6667,0076,-9.62,-5.33,11.0000,241.0000
1982-03-19 04:00:00 UTC,2445047.666667,29.6417,-93.6667,0076,-9.80,-4.99,11.0000,243.0000
1982-03-19 04:30:00 UTC,2445047.687500,29.6417,-93.6667,0076,-8.91,-4.54,10.0000,243.0000
1982-03-19 05:00:00 UTC,2445047.708333,29.6417,-93.6667,0076,-8.66,-5.00,10.0000,240.0000
1982-03-19 05:30:00 UTC,2445047.729167,29.6417,-93.6667,0076,-9.33,-5.83,11.0000,238.0000
1982-03-19 06:00:00 UTC,2445047.750000,29.6417,-93.6667,0076,-9.95,-6.71,12.0000,236.0000
1982-03-19 06:30:00 UTC,2445047.770833,29.6417,-93.6667,0076,-9.71,-7.05,12.0000,234.0000
1982-03-19 07:00:00 UTC,2445047.791667,29.6417,-93.6667,0076,-9.71,-7.05,12.0000,234.0000
1982-03-19 07:30:00 UTC,2445047.812500,29.6417,-93.6667,0076,-9.01,-6.31,11.0000,235.0000
1982-03-19 08:00:00 UTC,2445047.833333,29.6417,-93.6667,0076,-8.29,-5.59,10.0000,236.0000
1982-03-19 08:30:00 UTC,2445047.854167,29.6417,-93.6667,0076,-6.22,-5.03,8.0000,231.0000
1982-03-19 09:00:00 UTC,2445047.875000,29.6417,-93.6667,0076,-4.95,-4.95,7.0000,225.0000
1982-03-19 09:30:00 UTC,2445047.895833,29.6417,-93.6667,0076,-4.68,-5.20,7.0000,222.0000
1982-03-19 10:00:00 UTC,2445047.916667,29.6417,-93.6667,0076,-4.86,-5.04,7.0000,224.0000
1982-03-19 10:30:00 UTC,2445047.937500,29.6417,-93.6667,0076,-4.53,-3.94,6.0000,229.0000
1982-03-19 11:00:00 UTC,2445047.958333,29.6417,-93.6667,0076,-3.99,-3.01,5.0000,233.0000
1982-03-19 11:30:00 UTC,2445047.979167,29.6417,-93.6667,0076,-3.83,-3.21,5.0000,230.0000
1982-03-19 12:00:00 UTC,2445048.000000,29.6417,-93.6667,0076,-3.11,-2.52,4.0000,231.0000
1982-03-19 12:30:00 UTC,2445048.020833,29.6417,-93.6667,0076,-4.41,-2.35,5.0000,242.0000
1982-03-19 13:00:00 UTC,2445048.041667,29.6417,-93.6667,0076,-8.22,-3.66,9.0000,246.0000
1982-03-19 13:30:00 UTC,2445048.062500,29.6417,-93.6667,0076,-11.35,-3.91,12.0000,251.0000
1982-03-19 14:00:00 UTC,2445048.083333,29.6417,-93.6667,0076,-12.90,-1.58,13.0000,263.0000
1982-03-19 14:30:00 UTC,2445048.104167,29.6417,-93.6667,0076,-13.00,0.23,13.0000,271.0000
1982-03-19 15:00:00 UTC,2445048.125000,29.6417,-93.6667,0076,-12.00,-0.00,12.0000,270.0000
1982-03-19 15:30:00 UTC,2445048.145833,29.6417,-93.6667,0076,-10.98,0.58,11.0000,273.0000
1982-03-19 16:00:00 UTC,2445048.166667,29.6417,-93.6667,0076,-9.78,2.08,10.0000,282.0000
1982-03-19 16:30:00 UTC,2445048.187500,29.6417,-93.6667,0076,-8.65,2.48,9.0000,286.0000
1982-03-19 17:00:00 UTC,2445048.208333,29.6417,-93.6667,0076,-7.85,1.53,8.0000,281.0000
1982-03-19 17:30:00 UTC,2445048.229167,29.6417,-93.6667,0076,-7.99,0.42,8.0000,273.0000
1982-03-19 18:00:00 UTC,2445048.250000,29.6417,-93.6667,0076,-9.00,-0.00,9.0000,270.0000
1982-03-19 18:30:00 UTC,2445048.270833,29.6417,-93.6667,0076,-9.98,-0.70,10.0000,266.0000
1982-03-19 19:00:00 UTC,2445048.291667,29.6417,-93.6667,0076,-9.85,-1.74,10.0000,260.0000
1982-03-19 19:30:00 UTC,2445048.312500,29.6417,-93.6667,0076,-8.77,-2.02,9.0000,257.0000
1982-03-19 20:00:00 UTC,2445048.333333,29.6417,-93.6667,0076,-6.73,-1.93,7.0000,254.0000
1982-03-19 20:30:00 UTC,2445048.354167,29.6417,-93.6667,0076,-4.46,-2.27,5.0000,243.0000
1982-03-19 21:00:00 UTC,2445048.375000,29.6417,-93.6667,0076,-1.88,-3.53,4.0000,208.0000
1982-03-19 21:30:00 UTC,2445048.395833,29.6417,-93.6667,0076,0.00,-6.00,6.0000,180.0000
1982-03-19 22:00:00 UTC,2445048.416667,29.6417,-93.6667,0076,0.97,-6.93,7.0000,172.0000
1982-03-19 22:30:00 UTC,2445048.437500,29.6417,-93.6667,0076,1.30,-3.78,4.0000,161.0000
1982-03-19 23:00:00 UTC,2445048.458333,29.6417,-93.6667,0076,1.96,-0.38,2.0000,101.0000
1982-03-19 23:30:00 UTC,2445048.479167,29.6417,-93.6667,0076,2.90,-0.78,3.0000,105.0000
1982-03-20 00:00:00 UTC,2445048.500000,29.6417,-93.6667,0076,2.50,-4.33,5.0000,150.0000
1982-03-20 00:30:00 UTC,2445048.520833,29.6417,-93.6667,0076,2.18,-8.73,9.0000,166.0000
1982-03-20 01:00:00 UTC,2445048.541667,29.6417,-93.6667,0076,2.25,-9.74,10.0000,167.0000
1982-03-20 01:30:00 UTC,2445048.562500,29.6417,-93.6667,0076,1.53,-10.89,11.0000,172.0000
1982-03-20 02:00:00 UTC,2445048.583333,29.6417,-93.6667,0076,-2.19,-13.83,14.0000,189.0000
1982-03-20 02:30:00 UTC,2445048.604167,29.6417,-93.6667,0076,-4.68,-15.30,16.0000,197.0000
1982-03-20 03:00:00 UTC,2445048.625000,29.6417,-93.6667,0076,-3.05,-15.71,16.0000,191.0000
1982-03-20 03:30:00 UTC,2445048.645833,29.6417,-93.6667,0076,-1.67,-15.91,16.0000,186.0000
1982-03-20 04:00:00 UTC,2445048.666667,29.6417,-93.6667,0076,-3.24,-16.69,17.0000,191.0000
1982-03-20 04:30:00 UTC,2445048.687500,29.6417,-93.6667,0076,-6.50,-17.85,19.0000,200.0000
1982-03-20 05:00:00 UTC,2445048.708333,29.6417,-93.6667,0076,-7.03,-16.57,18.0000,203.0000
1982-03-20 05:30:00 UTC,2445048.729167,29.6417,-93.6667,0076,-4.68,-15.30,16.0000,197.0000
1982-03-20 06:00:00 UTC,2445048.750000,29.6417,-93.6667,0076,-1.57,-14.92,15.0000,186.0000